EDT,Max TemperatureF,Mean TemperatureF,Min TemperatureF,Max Dew PointF,MeanDew PointF,Min DewpointF,Max Humidity, Mean Humidity, Min Humidity, Max Sea Level PressureIn, Mean Sea Level PressureIn, Min Sea Level PressureIn, Max VisibilityMiles, Mean VisibilityMiles, Min VisibilityMiles, Max Wind SpeedMPH, Mean Wind SpeedMPH, Max Gust SpeedMPH,PrecipitationIn, CloudCover, Events, WindDirDegrees
2012-3-1,38,36,34,34,33,32,94,87,79,29.86,29.76,29.58,10,9,5,17,10,29,0.00,8,,236
2012-3-2,47,40,32,47,36,31,98,92,79,29.85,29.50,29.14,10,7,2,22,7,34,0.00,5,Rain,102
2012-3-3,35,32,28,32,28,24,98,84,71,29.75,29.60,29.44,10,7,1,30,19,41,0.00,8,Snow,255
2012-3-4,32,30,27,30,27,24,97,91,78,29.85,29.80,29.75,10,5,1,10,4,,0.00,8,Snow,262
2012-3-5,31,24,17,24,18,12,94,73,60,30.36,30.19,29.91,10,10,7,16,7,18,0.00,5,Snow,308
2012-3-6,63,46,29,40,31,23,79,62,41,30.33,30.16,29.98,10,10,10,25,12,34,0.00,3,,176
2012-3-7,65,56,47,48,40,31,63,52,44,30.09,30.01,29.93,10,10,10,32,16,41,0.00,5,,201
2012-3-8,61,48,35,56,39,26,97,81,60,30.15,29.96,29.78,10,8,2,23,17,36,0.00,7,Rain,275
2012-3-9,35,30,25,31,22,16,94,68,52,30.54,30.36,30.13,10,10,1,22,11,37,0.00,3,Snow,290
2012-3-10,51,36,22,30,21,17,86,60,39,30.52,30.43,30.25,10,10,10,22,7,28,0.00,0,,179
2012-3-11,64,47,30,38,31,26,83,55,29,30.32,30.25,30.16,10,10,10,14,8,17,0.00,0,,194
2012-3-12,66,58,49,58,50,37,99,80,51,30.15,29.95,29.74,10,8,3,22,10,31,0.00,7,Rain,172
2012-3-13,62,54,47,50,43,30,97,69,30,30.10,30.01,29.88,10,9,7,20,8,24,0.00,1,,258
2012-3-14,79,58,37,60,46,35,95,70,40,30.12,30.06,29.97,10,10,10,17,4,24,0.00,0,,195
2012-3-15,79,67,56,65,59,53,100,82,55,30.03,30.00,29.95,10,9,3,12,5,18,0.00,2,Rain,204
2012-3-16,76,64,52,63,58,53,100,84,59,30.11,30.06,30.02,10,8,2,9,2,,0.00,0,,181
2012-3-17,76,64,51,59,56,51,100,79,49,30.17,30.13,30.06,10,9,4,14,7,22,0.00,0,,178
2012-3-18,71,63,55,62,58,54,97,86,62,30.12,30.07,30.03,10,8,3,8,3,,0.00,3,Rain,178
2012-3-19,79,66,52,64,59,52,100,82,55,30.09,30.05,30.00,10,8,0,13,3,17,0.00,1,Fog,186
2012-3-20,81,70,59,60,57,54,83,63,41,30.13,30.07,30.02,10,10,10,18,7,23,0.00,0,,171
2012-3-21,83,70,56,60,57,53,89,61,43,30.17,30.13,30.07,10,10,10,10,5,,0.00,0,,161
2012-3-22,80,67,54,61,57,54,100,72,43,30.15,30.11,30.05,10,8,1,10,2,,0.00,1,,166
2012-3-23,66,62,59,63,61,58,100,92,77,30.07,30.01,29.88,10,8,4,8,2,,0.00,6,Rain,112
2012-3-24,60,58,55,57,56,55,100,97,88,29.87,29.82,29.77,10,4,1,7,3,,0.00,8,Rain,31
2012-3-25,70,60,50,56,53,50,100,85,55,30.00,29.95,29.89,10,6,0,16,5,23,0.00,5,Fog,319
2012-3-26,49,40,32,41,30,26,81,64,46,30.37,30.28,30.10,10,10,10,17,10,23,0.00,0,,34
2012-3-27,58,45,32,34,26,21,75,57,37,30.36,30.24,29.98,10,10,10,21,9,26,0.00,1,,137
2012-3-28,62,59,56,53,46,41,87,64,50,29.89,29.81,29.75,10,10,10,28,13,34,0.00,1,,254
2012-3-29,51,42,34,37,34,32,95,75,57,30.14,30.08,30.01,10,10,10,8,2,,0.00,0,,29
2012-3-30,41,38,36,41,36,32,99,87,78,30.04,29.89,29.75,10,8,1,16,9,23,0.00,5,Rain,100
2012-3-31,44,40,35,38,35,33,99,89,77,30.00,29.96,29.89,10,8,3,9,6,,0.00,8,,55